EW2295 Weather Reports


time (UTC)temp
C
wind
direction
speed
KPH
gust
KPH
rain 1hr
cm
rain 24hr
cm
rain mn
cm
humidity
%
barometer
mb
20190418124704 22 88 4.8 24.1 0.00 0.00 0.00 33 1024.4
20190418124205 22 102 6.4 24.1 0.00 0.00 0.00 31 1024.6
20190418123705 22 50 8.0 24.1 0.00 0.00 0.00 32 1024.5
20190418123205 22 53 8.0 22.5 0.00 0.00 0.00 32 1024.5
20190418122704 21 59 8.0 27.4 0.00 0.00 0.00 31 1024.6
20190418122204 21 12 8.0 27.4 0.00 0.00 0.00 33 1024.5
20190418121704 21 84 8.0 27.4 0.00 0.00 0.00 35 1024.6
20190418121205 21 32 6.4 25.7 0.00 0.00 0.00 36 1024.5
20190418120705 21 76 6.4 25.7 0.00 0.00 0.00 39 1024.6
20190418120204 21 49 8.0 25.7 0.00 0.00 0.00 40 1024.6
20190418115705 21 30 8.0 30.6 0.00 0.00 0.00 39 1024.8
20190418115205 21 46 8.0 30.6 0.00 0.00 0.00 40 1024.9
20190418114704 21 63 8.0 30.6 0.00 0.00 0.00 40 1025.0
20190418114205 21 66 9.7 24.1 0.00 0.00 0.00 39 1025.0
20190418113705 21 44 8.0 22.5 0.00 0.00 0.00 37 1025.0
20190418113204 21 51 6.4 22.5 0.00 0.00 0.00 35 1025.1
20190418112704 21 114 8.0 22.5 0.00 0.00 0.00 34 1025.1
20190418112204 21 65 8.0 25.7 0.00 0.00 0.00 32 1025.2
20190418111705 21 91 6.4 25.7 0.00 0.00 0.00 32 1025.2
20190418111204 21 105 8.0 27.4 0.00 0.00 0.00 33 1025.2
20190418110704 21 24 8.0 27.4 0.00 0.00 0.00 32 1025.2
20190418110205 21 34 6.4 24.1 0.00 0.00 0.00 33 1025.2
20190418105705 21 82 4.8 19.3 0.00 0.00 0.00 36 1025.2
20190418105204 21 32 6.4 24.1 0.00 0.00 0.00 35 1025.3
20190418104704 20 55 8.0 24.1 0.00 0.00 0.00 34 1025.4
20190418104205 20 42 8.0 32.2 0.00 0.00 0.00 35 1025.4
20190418103704 20 44 9.7 32.2 0.00 0.00 0.00 35 1025.3
20190418103204 20 78 9.7 32.2 0.00 0.00 0.00 35 1025.3
20190418102704 20 74 8.0 22.5 0.00 0.00 0.00 37 1025.4
20190418102205 20 101 6.4 19.3 0.00 0.00 0.00 38 1025.5
20190418101705 20 59 6.4 19.3 0.00 0.00 0.00 39 1025.5
20190418101204 20 89 8.0 19.3 0.00 0.00 0.00 38 1025.6
20190418100705 20 53 8.0 19.3 0.00 0.00 0.00 39 1025.6
20190418100204 19 71 8.0 19.3 0.00 0.00 0.00 42 1025.6
20190418095705 19 118 6.4 19.3 0.00 0.00 0.00 42 1025.7
20190418095204 19 57 4.8 16.1 0.00 0.00 0.00 47 1025.7
20190418094705 19 30 4.8 16.1 0.00 0.00 0.00 48 1025.7
20190418094205 18 42 6.4 16.1 0.00 0.00 0.00 50 1025.7
20190418093705 18 119 6.4 16.1 0.00 0.00 0.00 52 1025.7
20190418093204 18 57 4.8 16.1 0.00 0.00 0.00 52 1025.7
20190418092704 18 32 4.8 16.1 0.00 0.00 0.00 53 1025.8
20190418092204 18 27 4.8 19.3 0.00 0.00 0.00 55 1025.8
20190418091204 18 51 6.4 19.3 0.00 0.00 0.00 53 1026.0
20190418090705 18 71 4.8 16.1 0.00 0.00 0.00 55 1026.1
20190418090208 17 38 4.8 16.1 0.00 0.00 0.00 54 1026.1
20190418085706 17 41 4.8 16.1 0.00 0.00 0.00 56 1026.1
20190418085205 17 43 3.2 12.9 0.00 0.00 0.00 56 1026.0
20190418084704 17 53 3.2 12.9 0.00 0.00 0.00 58 1026.0
20190418084204 16 32 4.8 11.3 0.00 0.00 0.00 58 1026.1
20190418083705 16 67 3.2 11.3 0.00 0.00 0.00 58 1026.0
20190418083204 16 109 1.6 11.3 0.00 0.00 0.00 60 1026.0
20190418082705 15 87 1.6 11.3 0.00 0.00 0.00 61 1026.0
20190418082204 15 55 3.2 11.3 0.00 0.00 0.00 62 1026.0
20190418081705 15 81 3.2 9.7 0.00 0.00 0.00 61 1026.1
20190418081204 15 35 1.6 9.7 0.00 0.00 0.00 63 1026.1
20190418080705 14 93 1.6 12.9 0.00 0.00 0.00 64 1026.1
20190418080204 14 56 3.2 12.9 0.00 0.00 0.00 64 1026.1
20190418075704 13 46 3.2 14.5 0.00 0.00 0.00 66 1026.1
20190418075205 13 116 4.8 14.5 0.00 0.00 0.00 67 1026.1
20190418074705 13 69 4.8 14.5 0.00 0.00 0.00 67 1026.1
20190418074205 13 87 3.2 14.5 0.00 0.00 0.00 67 1026.0
20190418073704 13 44 3.2 14.5 0.00 0.00 0.00 68 1026.0
20190418073206 12 30 3.2 14.5 0.00 0.00 0.00 68 1026.0
20190418072704 12 40 3.2 11.3 0.00 0.00 0.00 68 1025.9
20190418072205 12 36 3.2 11.3 0.00 0.00 0.00 68 1025.9
20190418071704 12 39 4.8 16.1 0.00 0.00 0.00 69 1025.8
20190418071214 12 52 4.8 16.1 0.00 0.00 0.00 68 1025.9
20190418070704 12 338 4.8 9.7 0.00 0.00 0.00 69 1025.8
20190418070204 12 32 3.2 14.5 0.00 0.00 0.00 69 1025.8
20190418065705 12 45 3.2 14.5 0.00 0.00 0.00 69 1025.8
20190418065204 11 26 3.2 14.5 0.00 0.00 0.00 69 1025.7
20190418064704 11 39 1.6 8.0 0.00 0.00 0.00 70 1025.7
20190418064205 11 39 1.6 8.0 0.00 0.00 0.00 70 1025.6
20190418063704 11 36 1.6 6.4 0.00 0.00 0.00 71 1025.6
20190418063205 11 41 1.6 6.4 0.00 0.00 0.00 71 1025.6
20190418062704 11 67 1.6 6.4 0.00 0.00 0.00 71 1025.5
20190418062204 11 38 1.6 9.7 0.00 0.00 0.00 71 1025.5
20190418061704 11 39 1.6 9.7 0.00 0.00 0.00 71 1025.4
20190418061204 11 51 1.6 9.7 0.00 0.00 0.00 71 1025.4
20190418060705 11 76 1.6 8.0 0.00 0.00 0.00 71 1025.3
20190418060204 10 69 3.2 11.3 0.00 0.00 0.00 71 1025.3
20190418055704 10 63 3.2 11.3 0.00 0.00 0.00 72 1025.3
20190418055205 10 52 3.2 11.3 0.00 0.00 0.00 72 1025.3
20190418054704 10 64 1.6 8.0 0.00 0.00 0.00 72 1025.3
20190418054205 10 34 1.6 8.0 0.00 0.00 0.00 72 1025.2
20190418053704 10 71 1.6 9.7 0.00 0.00 0.00 72 1025.2
20190418053205 10 96 0.0 9.7 0.00 0.00 0.00 72 1025.2
20190418052704 10 90 1.6 9.7 0.00 0.00 0.00 73 1025.1
20190418052204 10 40 1.6 8.0 0.00 0.00 0.00 73 1025.1
20190418051705 10 63 1.6 8.0 0.00 0.00 0.00 73 1025.1
20190418051204 10 82 1.6 11.3 0.00 0.00 0.00 74 1025.1
20190418050704 10 40 1.6 11.3 0.00 0.00 0.00 74 1025.0
20190418050205 10 36 1.6 9.7 0.00 0.00 0.00 74 1025.0
20190418045705 9 36 1.6 9.7 0.00 0.00 0.00 74 1025.1
20190418045204 9 70 1.6 9.7 0.00 0.00 0.00 74 1025.1
20190418044705 9 71 1.6 4.8 0.00 0.00 0.00 74 1025.0
20190418044205 9 46 0.0 3.2 0.00 0.00 0.00 74 1025.0
20190418043704 9 52 0.0 4.8 0.00 0.00 0.00 74 1025.0
20190418043204 9 59 0.0 4.8 0.00 0.00 0.00 74 1024.9
20190418042705 9 39 0.0 4.8 0.00 0.00 0.00 73 1024.8
20190418042204 9 40 0.0 3.2 0.00 0.00 0.00 73 1024.8
20190418041705 9 68 0.0 3.2 0.00 0.00 0.00 73 1024.8
20190418041204 9 41 0.0 1.6 0.00 0.00 0.00 73 1024.6
20190418040704 9 36 0.0 3.2 0.00 0.00 0.00 73 1024.6
20190418040204 9 36 0.0 3.2 0.00 0.00 0.00 72 1024.6
20190418035705 9 36 0.0 1.6 0.00 0.00 0.00 72 1024.6
20190418035204 9 49 0.0 1.6 0.00 0.00 0.00 72 1024.6
20190418034705 9 61 0.0 3.2 0.00 0.00 0.00 72 1024.6
20190418034204 9 44 0.0 3.2 0.00 0.00 0.00 71 1024.5
20190418033705 9 76 0.0 3.2 0.00 0.00 0.00 71 1024.5
20190418033204 9 46 0.0 0.0 0.00 0.00 0.00 70 1024.5
20190418032704 10 51 0.0 0.0 0.00 0.00 0.00 70 1024.5
20190418032204 10 51 0.0 4.8 0.00 0.00 0.00 70 1024.5
20190418031704 10 51 0.0 4.8 0.00 0.00 0.00 70 1024.5
20190418031205 10 51 0.0 4.8 0.00 0.00 0.00 69 1024.4
20190418030704 10 51 0.0 4.8 0.00 0.00 0.00 69 1024.4
20190418030205 10 40 0.0 0.0 0.00 0.00 0.00 70 1024.5
20190418025704 10 40 0.0 0.0 0.00 0.00 0.00 70 1024.4
20190418025205 10 40 0.0 0.0 0.00 0.00 0.00 69 1024.4
20190418024705 10 40 0.0 3.2 0.00 0.00 0.00 69 1024.4
20190418024205 10 40 0.0 6.4 0.00 0.00 0.00 69 1024.4
20190418023704 10 40 1.6 6.4 0.00 0.00 0.00 69 1024.3
20190418023205 10 44 1.6 6.4 0.00 0.00 0.00 69 1024.4
20190418022704 10 37 0.0 0.0 0.00 0.00 0.00 70 1024.3
20190418022204 10 46 0.0 0.0 0.00 0.00 0.00 70 1024.3
20190418021705 10 44 0.0 0.0 0.00 0.00 0.00 69 1024.1
20190418021204 10 29 0.0 0.0 0.00 0.00 0.00 69 1024.2
20190418020705 10 29 0.0 0.0 0.00 0.00 0.00 69 1024.2
20190418020207 10 42 0.0 0.0 0.00 0.00 0.00 69 1024.1
20190418015704 10 43 0.0 0.0 0.00 0.00 0.00 69 1024.1
20190418015205 10 43 0.0 0.0 0.00 0.00 0.00 70 1024.0
20190418014705 10 43 0.0 0.0 0.00 0.00 0.00 70 1024.0
20190418014205 10 27 0.0 0.0 0.00 0.00 0.00 70 1024.0
20190418013734 10 32 0.0 0.0 0.00 0.00 0.00 70 1023.9
20190418012705 10 51 0.0 0.0 0.00 0.00 0.00 68 1023.9
20190418012204 10 51 0.0 0.0 0.00 0.00 0.00 67 1023.9
20190418011704 10 51 0.0 3.2 0.00 0.00 0.00 67 1023.8
20190418011205 10 51 0.0 3.2 0.00 0.00 0.00 66 1023.9
20190418010704 10 56 0.0 3.2 0.00 0.00 0.00 66 1023.8
20190418010205 10 55 0.0 0.0 0.00 0.00 0.00 66 1023.8
20190418005704 10 46 0.0 0.0 0.00 0.00 0.00 66 1023.9
20190418005205 10 67 0.0 0.0 0.00 0.00 0.00 66 1023.9
20190418004705 10 41 0.0 0.0 0.00 0.00 0.00 66 1023.9
20190418004204 10 44 0.0 3.2 0.00 0.00 0.00 66 1023.9
20190418003705 10 44 0.0 3.2 0.00 0.00 0.00 66 1023.9
20190418003204 10 44 0.0 3.2 0.00 0.00 0.00 66 1023.9
20190418002704 10 61 0.0 1.6 0.00 0.00 0.00 65 1024.0
20190418002205 10 43 0.0 0.0 0.00 0.00 0.00 65 1024.0
20190418001704 10 43 0.0 0.0 0.00 0.00 0.00 65 1024.0
20190418001205 10 50 0.0 0.0 0.00 0.00 0.00 64 1024.0
20190418000704 11 50 0.0 0.0 0.00 0.00 0.00 64 1024.1
20190418000205 11 50 0.0 0.0 0.00 0.00 0.00 64 1024.1
20190417235705 11 50 0.0 0.0 0.00 0.00 0.00 63 1024.2
20190417235204 11 50 0.0 1.6 0.00 0.00 0.00 62 1024.1
20190417234705 11 50 0.0 1.6 0.00 0.00 0.00 61 1024.2
20190417234204 11 50 0.0 1.6 0.00 0.00 0.00 61 1024.1
20190417233704 11 92 0.0 1.6 0.00 0.00 0.00 60 1024.1
20190417233205 11 88 0.0 4.8 0.00 0.00 0.00 60 1024.1
20190417232704 11 44 0.0 6.4 0.00 0.00 0.00 60 1024.0
20190417232204 11 50 0.0 6.4 0.00 0.00 0.00 60 1024.0
20190417231705 12 44 1.6 6.4 0.00 0.00 0.00 61 1024.0
20190417231204 12 36 1.6 4.8 0.00 0.00 0.00 60 1024.0
20190417230705 12 44 0.0 4.8 0.00 0.00 0.00 60 1024.0
20190417230204 12 18 0.0 4.8 0.00 0.00 0.00 60 1023.9
20190417225705 12 60 0.0 6.4 0.00 0.00 0.00 60 1023.9
20190417225205 12 55 1.6 6.4 0.00 0.00 0.00 60 1023.9
20190417224704 12 17 1.6 8.0 0.00 0.00 0.00 59 1023.8
20190417224205 12 46 1.6 8.0 0.00 0.00 0.00 60 1023.8
20190417223705 12 49 1.6 6.4 0.00 0.00 0.00 60 1023.8
20190417223204 12 30 1.6 4.8 0.00 0.00 0.00 60 1023.8
20190417222705 12 65 1.6 4.8 0.00 0.00 0.00 60 1023.8
20190417222205 12 94 0.0 3.2 0.00 0.00 0.00 61 1023.8
20190417221704 12 57 0.0 3.2 0.00 0.00 0.00 61 1023.7
20190417221205 12 57 0.0 3.2 0.00 0.00 0.00 61 1023.7
20190417220704 12 71 0.0 0.0 0.00 0.00 0.00 61 1023.7
20190417220205 12 51 0.0 3.2 0.00 0.00 0.00 61 1023.6
20190417215704 12 66 0.0 3.2 0.00 0.00 0.00 60 1023.6
20190417215204 12 104 0.0 6.4 0.00 0.00 0.00 61 1023.5
20190417214704 12 51 0.0 6.4 0.00 0.00 0.00 60 1023.4
20190417214205 12 51 0.0 6.4 0.00 0.00 0.00 61 1023.4
20190417213704 12 55 0.0 1.6 0.00 0.00 0.00 61 1023.4
20190417213205 12 41 0.0 0.0 0.00 0.00 0.00 60 1023.3
20190417212704 13 41 0.0 3.2 0.00 0.00 0.00 60 1023.3
20190417212205 13 41 0.0 3.2 0.00 0.00 0.00 59 1023.3
20190417211704 13 49 0.0 4.8 0.00 0.00 0.00 59 1023.3
20190417211205 13 48 0.0 8.0 0.00 0.00 0.00 59 1023.3
20190417210705 13 51 1.6 8.0 0.00 0.00 0.00 59 1023.2
20190417210204 13 38 1.6 8.0 0.00 0.00 0.00 60 1023.3
20190417205704 13 44 3.2 8.0 0.00 0.00 0.00 59 1023.3
20190417205205 13 42 1.6 4.8 0.00 0.00 0.00 59 1023.3
20190417204704 13 103 0.0 4.8 0.00 0.00 0.00 58 1023.3
20190417204205 13 50 0.0 4.8 0.00 0.00 0.00 57 1023.3
20190417203705 13 77 0.0 4.8 0.00 0.00 0.00 57 1023.3
20190417203204 14 43 0.0 4.8 0.00 0.00 0.00 56 1023.3
20190417202705 14 39 0.0 3.2 0.00 0.00 0.00 56 1023.2
20190417202205 14 28 0.0 4.8 0.00 0.00 0.00 55 1023.2
20190417201705 14 63 0.0 6.4 0.00 0.00 0.00 55 1023.2
20190417201204 14 42 0.0 6.4 0.00 0.00 0.00 55 1023.2
20190417200704 14 68 1.6 4.8 0.00 0.00 0.00 55 1023.2
20190417200205 14 43 1.6 4.8 0.00 0.00 0.00 54 1023.1
20190417195705 14 60 0.0 4.8 0.00 0.00 0.00 54 1023.1
20190417195204 14 54 0.0 6.4 0.00 0.00 0.00 54 1023.0
20190417194705 14 95 0.0 6.4 0.00 0.00 0.00 54 1023.0
20190417194204 14 69 0.0 6.4 0.00 0.00 0.00 54 1023.0
20190417193705 14 79 0.0 4.8 0.00 0.00 0.00 55 1023.0
20190417193204 14 99 0.0 4.8 0.00 0.00 0.00 55 1023.0
20190417192705 14 90 0.0 3.2 0.00 0.00 0.00 56 1023.0
20190417192204 14 108 0.0 3.2 0.00 0.00 0.00 56 1023.0
20190417191705 14 57 0.0 3.2 0.00 0.00 0.00 56 1023.0
20190417191204 14 92 0.0 3.2 0.00 0.00 0.00 56 1022.9
20190417190705 14 65 0.0 3.2 0.00 0.00 0.00 56 1022.9
20190417190205 14 67 0.0 3.2 0.00 0.00 0.00 57 1022.8
20190417185705 15 119 0.0 3.2 0.00 0.00 0.00 57 1022.7
20190417185204 15 86 0.0 3.2 0.00 0.00 0.00 58 1022.7
20190417184705 15 130 0.0 3.2 0.00 0.00 0.00 57 1022.6
20190417184204 15 80 0.0 3.2 0.00 0.00 0.00 59 1022.6
20190417183704 15 80 0.0 1.6 0.00 0.00 0.00 58 1022.6
20190417183204 15 83 0.0 1.6 0.00 0.00 0.00 58 1022.5
20190417182704 15 77 0.0 1.6 0.00 0.00 0.00 57 1022.4
20190417182204 15 59 0.0 0.0 0.00 0.00 0.00 57 1022.4
20190417181704 15 59 0.0 0.0 0.00 0.00 0.00 56 1022.3
20190417181204 15 59 0.0 0.0 0.00 0.00 0.00 56 1022.4
20190417180704 15 59 0.0 0.0 0.00 0.00 0.00 55 1022.4
20190417180206 16 59 0.0 0.0 0.00 0.00 0.00 55 1022.3
20190417175705 16 59 0.0 0.0 0.00 0.00 0.00 54 1022.3
20190417175205 16 59 0.0 4.8 0.00 0.00 0.00 53 1022.2
20190417174704 16 59 0.0 4.8 0.00 0.00 0.00 53 1022.2
20190417174205 16 58 0.0 6.4 0.00 0.00 0.00 53 1022.2
20190417173705 16 111 0.0 6.4 0.00 0.00 0.00 52 1022.2
20190417173204 16 92 1.6 9.7 0.00 0.00 0.00 51 1022.2
20190417172704 16 86 1.6 12.9 0.00 0.00 0.00 50 1022.1
20190417172205 16 111 1.6 12.9 0.00 0.00 0.00 50 1022.1
20190417171704 16 99 1.6 12.9 0.00 0.00 0.00 51 1022.1
20190417171206 16 97 1.6 6.4 0.00 0.00 0.00 50 1022.1
20190417170704 16 102 1.6 9.7 0.00 0.00 0.00 51 1022.0
20190417170204 16 101 1.6 9.7 0.00 0.00 0.00 50 1022.0
20190417165704 16 95 1.6 11.3 0.00 0.00 0.00 50 1022.1
20190417165205 17 74 1.6 11.3 0.00 0.00 0.00 50 1022.1
20190417164704 17 46 3.2 11.3 0.00 0.00 0.00 50 1022.1
20190417164205 17 71 3.2 11.3 0.00 0.00 0.00 52 1022.2
20190417163705 17 27 3.2 11.3 0.00 0.00 0.00 51 1022.1
20190417163205 17 91 3.2 11.3 0.00 0.00 0.00 52 1022.1
20190417162704 17 70 3.2 12.9 0.00 0.00 0.00 52 1022.1
20190417162204 17 89 3.2 12.9 0.00 0.00 0.00 52 1022.1
20190417161705 17 37 3.2 12.9 0.00 0.00 0.00 53 1022.1
20190417161204 17 136 3.2 17.7 0.00 0.00 0.00 53 1022.0
20190417160704 17 69 4.8 17.7 0.00 0.00 0.00 53 1022.0
20190417160205 17 67 3.2 12.9 0.00 0.00 0.00 53 1022.1
20190417155705 17 67 3.2 11.3 0.00 0.00 0.00 55 1022.0
20190417155204 17 127 1.6 4.8 0.00 0.00 0.00 56 1022.0
20190417154704 17 84 0.0 3.2 0.00 0.00 0.00 58 1022.0
20190417154204 17 30 0.0 0.0 0.00 0.00 0.00 60 1022.0
20190417153704 17 54 0.0 0.0 0.00 0.00 0.00 62 1022.0
20190417153204 17 350 0.0 0.0 0.00 0.00 0.00 61 1022.0
20190417152705 16 350 0.0 0.0 0.00 0.00 0.00 65 1022.1
20190417152204 16 317 0.0 0.0 0.00 0.00 0.00 65 1022.0
20190417151705 16 221 0.0 0.0 0.00 0.00 0.00 65 1022.1
20190417151204 16 221 0.0 0.0 0.00 0.00 0.00 64 1022.1
20190417150704 16 221 0.0 0.0 0.00 0.00 0.00 65 1022.0
20190417150204 16 221 0.0 4.8 0.00 0.00 0.00 65 1022.1
20190417145705 16 221 0.0 4.8 0.00 0.00 0.00 65 1022.1
20190417145204 16 221 1.6 4.8 0.00 0.00 0.00 64 1022.1
20190417144704 16 221 0.0 6.4 0.00 0.00 0.00 64 1022.1
20190417144204 16 221 0.0 8.0 0.00 0.00 0.00 64 1022.1
20190417143705 16 234 1.6 12.9 0.00 0.00 0.00 64 1022.1
20190417143204 16 225 3.2 12.9 0.00 0.00 0.00 63 1022.1
20190417142704 16 226 1.6 8.0 0.00 0.00 0.00 62 1022.1
20190417142204 16 256 0.0 8.0 0.00 0.00 0.00 60 1022.1
20190417141705 16 161 1.6 6.4 0.00 0.00 0.00 57 1022.1
20190417141210 16 98 1.6 8.0 0.00 0.00 0.00 55 1022.0
20190417140704 16 125 1.6 11.3 0.00 0.00 0.00 54 1022.1
20190417140204 17 105 1.6 11.3 0.00 0.00 0.00 54 1022.1
20190417135704 17 121 3.2 9.7 0.00 0.00 0.00 55 1022.0
20190417135205 17 84 3.2 9.7 0.00 0.00 0.00 55 1022.0
20190417134704 17 63 1.6 11.3 0.00 0.00 0.00 54 1021.9
20190417134205 17 98 3.2 11.3 0.00 0.00 0.00 54 1021.9
20190417133704 17 73 1.6 11.3 0.00 0.00 0.00 54 1021.9
20190417133205 17 98 1.6 8.0 0.00 0.00 0.00 55 1021.8
20190417132705 17 32 0.0 8.0 0.00 0.00 0.00 54 1021.8
20190417132205 17 54 0.0 8.0 0.00 0.00 0.00 58 1021.9
20190417131704 17 252 1.6 8.0 0.00 0.00 0.00 59 1022.0
20190417131205 16 88 1.6 6.4 0.00 0.00 0.00 57 1022.0
20190417130704 16 161 1.6 6.4 0.00 0.00 0.00 57 1022.1
20190417130205 16 110 1.6 11.3 0.00 0.00 0.00 58 1022.1
20190417125704 16 63 1.6 11.3 0.00 0.00 0.00 59 1022.0
20190417125205 16 104 1.6 11.3 0.00 0.00 0.00 58 1022.1